Munising, MI

7:07 AM EST on February 25, 2017 (GMT -0500)
Munising

Weather History for KP53 - December, 2012

Change the Weather History Date:

Monday, December 24, 2012

  Actual Average (KISQ) Record (KISQ)
Temperature  
Mean Temperature 22 °F -  
Max Temperature 27 °F 26 °F 48 °F (2015)
Min Temperature 17 °F 12 °F -12 °F (1969)
Degree Days  
Heating Degree Days 43    
Moisture  
Dew Point 15 °F    
Average Humidity 72    
Maximum Humidity 78    
Minimum Humidity 66    
Precipitation  
Precipitation 0.02 in - - ()
Sea Level Pressure  
Sea Level Pressure 30.02 in    
Wind  
Wind Speed 8 mph (WSW)    
Max Wind Speed 15 mph    
Max Gust Speed 21 mph    
Averages and records for this station are not official NWS values.
T = Trace of Precipitation, MM = Missing Value Source: NWS Daily Summary

Daily Weather History Graph

Daily Weather History Graph

Search for Another Location

Airport or City:

Trip Planner

Search our weather history database for the weather conditions in past years. The results will help you decide how hot, cold, wet, or windy it might be!

Date:

Astronomy

Dec. 24, 2012 Rise Set
Actual Time 8:28 AM EST 5:04 PM EST
Civil Twilight 7:53 AM EST 5:39 PM EST
Nautical Twilight 7:15 AM EST 6:17 PM EST
Astronomical Twilight 6:38 AM EST 6:54 PM EST
Moon 2:35 PM EST (12/24) 5:01 AM EST (12/24)
Length of Visible Light 9h 45m
Length of Day
8h 35m
Waxing Gibbous, 88% of the Moon is Illuminated
Dec 24
Waxing Gibbous
Dec 28
Full
Jan 4
Last Quarter
Jan 11
New
Jan 18
First Quarter

Hourly Weather History & Observations

Time (EST) Temp. Windchill Dew Point Humidity Pressure Visibility Wind Dir Wind Speed Gust Speed Precip Events Conditions
12:56 AM 19.0 °F 9.0 °F 10.9 °F 71% 30.00 in - SSW 8.1 mph - N/A   Unknown
1:56 AM 18.0 °F 9.8 °F 10.9 °F 74% 30.01 in - SE 5.8 mph - N/A   Unknown
2:56 AM 18.0 °F 9.8 °F 10.9 °F 74% 30.01 in - SSE 5.8 mph - N/A   Unknown
3:56 AM 17.1 °F 5.8 °F 10.0 °F 74% 30.01 in - South 9.2 mph - N/A   Unknown
4:56 AM 17.1 °F 6.6 °F 10.9 °F 77% 29.99 in - South 8.1 mph - N/A   Unknown
5:56 AM 18.0 °F 11.1 °F 10.9 °F 74% 29.99 in - South 4.6 mph - N/A   Unknown
6:56 AM 18.0 °F 9.8 °F 12.0 °F 78% 29.99 in - SSE 5.8 mph - N/A   Unknown
7:56 AM 19.9 °F 14.9 °F 12.9 °F 74% 30.00 in - SE 3.5 mph - N/A   Unknown
8:56 AM 19.9 °F 12.1 °F 14.0 °F 78% 30.00 in - South 5.8 mph - N/A   Unknown
9:56 AM 21.0 °F 14.6 °F 15.1 °F 78% 30.00 in - South 4.6 mph - N/A   Unknown
10:56 AM 24.1 °F 18.2 °F 17.1 °F 75% 30.01 in - Variable 4.6 mph - N/A   Unknown
11:56 AM 26.1 °F 19.4 °F 18.0 °F 71% 30.00 in - West 5.8 mph - N/A   Unknown
12:56 PM 27.0 °F 19.5 °F 18.0 °F 69% 29.99 in - West 6.9 mph - N/A   Unknown
1:56 PM 26.1 °F 17.6 °F 18.0 °F 71% 29.99 in - WNW 8.1 mph - N/A   Unknown
2:56 PM 27.0 °F 16.7 °F 19.0 °F 72% 29.99 in - North 11.5 mph - N/A   Unknown
3:56 PM 27.0 °F 16.7 °F 18.0 °F 69% 30.01 in - North 11.5 mph - N/A   Unknown
4:56 PM 27.0 °F 15.6 °F 18.0 °F 69% 30.02 in - North 13.8 mph - 0.01 in   Unknown
5:56 PM 26.1 °F 14.0 °F 16.0 °F 66% 30.03 in - North 15.0 mph 20.7 mph N/A   Unknown
6:56 PM 26.1 °F 15.6 °F 16.0 °F 66% 30.04 in - NNW 11.5 mph 20.7 mph N/A   Unknown
7:56 PM 26.1 °F 15.0 °F 16.0 °F 66% 30.06 in - North 12.7 mph - N/A   Unknown
8:56 PM 26.1 °F 15.0 °F 16.0 °F 66% 30.07 in - North 12.7 mph - N/A   Unknown
9:56 PM 25.0 °F 16.3 °F 17.1 °F 72% 30.09 in - NW 8.1 mph - N/A   Unknown
10:56 PM 25.0 °F 15.5 °F 19.0 °F 78% 30.11 in - North 9.2 mph - 0.01 in   Unknown
11:56 PM 21.9 °F 15.7 °F 14.0 °F 72% 30.13 in - SW 4.6 mph - N/A   Unknown